Location: Gälforsberget
(66.6500°N, 22.4167°E)
Time: 01:35:34
(UTC+00:00)

COSMOS 2455 - Pass Details

Date: 11 April 2026
Orbit: 901 x 907 km, 67.1° (Epoch: 20 May)

Event Time Altitude Azimuth Distance (km) Brightness Sun altitude
Rises 20:48:30 0° 294° (WNW) 3,544 6.8 -12.5°
Reaches altitude 10° 20:51:01 10° 292° (WNW) 2,601 6.0 -12.6°
Maximum altitude 20:57:01 69° 211° (SSW) 972 2.9 -12.9°
Enters shadow 21:02:10 14° 130° (SE) 2,295 4.4 -13.1°
